Montello, Wisconsin, United States (53949)
Lat: 43.79N, Lon: 89.32W
Wx Zone: WIZ046
Local Info
Past Weather Observations for Sunday, November 16, 2014

NOTE: This archive is for the closest National Weather Service station to Montello. Information may differ from the station used for current weather conditions.

Click here for Long-term Archive

Time Weather Temperature Dewpoint Humidity Pressure Winds Precip Visibility
23:55
Clear
9°F / -13°C 3°F / -16°C 78% 29.83 in
(1010 mb)
SSW 6.9 mph
(SSW 11 kph)
- 10SM
23:35
Partly Cloudy
9°F / -13°C 3°F / -16°C 78% 29.83 in
(1010 mb)
W 5.8 mph
(W 9 kph)
- 10SM
23:15
Clear
9°F / -13°C 3°F / -16°C 78% 29.86 in
(1011 mb)
W 6.9 mph
(W 11 kph)
- 10SM
22:55
Clear
9°F / -13°C 3°F / -16°C 78% 29.83 in
(1010 mb)
SSW 5.8 mph
(SSW 9 kph)
- 10SM
22:35
Clear
9°F / -13°C 3°F / -16°C 78% 29.83 in
(1010 mb)
SSW 5.8 mph
(SSW 9 kph)
- 10SM
22:15
Clear
10°F / -12°C 3°F / -16°C 72% 29.86 in
(1011 mb)
SSW 4.6 mph
(SSW 7 kph)
- 10SM
21:55
Clear
10°F / -12°C 3°F / -16°C 72% 29.86 in
(1011 mb)
SSW 6.9 mph
(SSW 11 kph)
- 10SM
21:35
Clear
12°F / -11°C 3°F / -16°C 67% 29.86 in
(1011 mb)
SSW 8.1 mph
(SSW 13 kph)
- 10SM
21:15
Clear
12°F / -11°C 3°F / -16°C 67% 29.86 in
(1011 mb)
W 9.2 mph
(W 15 kph)
- 10SM
20:55
Clear
12°F / -11°C 3°F / -16°C 67% 29.89 in
(1012 mb)
SSW 13.8 mph
(SSW 22 kph)
- 10SM
20:35
Clear
14°F / -10°C 3°F / -16°C 62% 29.89 in
(1012 mb)
SSW 12.7 mph
(SSW 20 kph)
- 10SM
20:15
Clear
16°F / -9°C 5°F / -15°C 62% 29.86 in
(1011 mb)
SSW 12.7 mph
(SSW 20 kph)
- 10SM
19:55
Clear
16°F / -9°C 5°F / -15°C 62% 29.86 in
(1011 mb)
SSW 13.8 mph
(SSW 22 kph)
- 10SM
19:35
Clear
18°F / -8°C 9°F / -13°C 68% 29.86 in
(1011 mb)
SSW 12.7 mph
(SSW 20 kph)
- 10SM
19:15
Clear
18°F / -8°C 9°F / -13°C 68% 29.86 in
(1011 mb)
SW 9.2 mph
(SW 15 kph)
- 10SM
18:55
Clear
18°F / -8°C 9°F / -13°C 68% 29.86 in
(1011 mb)
SSW 5.8 mph
(SSW 9 kph)
- 10SM
18:35
Clear
19°F / -7°C 10°F / -12°C 68% 29.89 in
(1012 mb)
SSW 6.9 mph
(SSW 11 kph)
- 10SM
18:15
Clear
19°F / -7°C 12°F / -11°C 73% 29.89 in
(1012 mb)
SSW 10.4 mph
(SSW 17 kph)
- 10SM
17:55
Clear
21°F / -6°C 14°F / -10°C 74% 29.89 in
(1012 mb)
SW 10.4 mph
(SW 17 kph)
- 10SM
17:35
Clear
21°F / -6°C 14°F / -10°C 74% 29.89 in
(1012 mb)
SSW 10.4 mph
(SSW 17 kph)
- 10SM
17:15
Partly Cloudy
23°F / -5°C 14°F / -10°C 68% 29.89 in
(1012 mb)
SSW 9.2 mph
(SSW 15 kph)
- 10SM
16:55
Overcast
23°F / -5°C 18°F / -8°C 80% 29.89 in
(1012 mb)
SSW 5.8 mph
(SSW 9 kph)
- 10SM
16:35
Overcast
25°F / -4°C 18°F / -8°C 74% 29.89 in
(1012 mb)
SSW 5.8 mph
(SSW 9 kph)
- 10SM
16:15
Overcast
25°F / -4°C 18°F / -8°C 74% 29.89 in
(1012 mb)
SSW 9.2 mph
(SSW 15 kph)
- 10SM
15:55
Overcast
25°F / -4°C 19°F / -7°C 80% 29.89 in
(1012 mb)
SW 9.2 mph
(SW 15 kph)
- 10SM
15:35
Overcast
25°F / -4°C 19°F / -7°C 80% 29.89 in
(1012 mb)
SSW 10.4 mph
(SSW 17 kph)
- 10SM
15:15
Overcast
27°F / -3°C 19°F / -7°C 74% 29.89 in
(1012 mb)
SW 10.4 mph
(SW 17 kph)
- 10SM
14:55
Overcast
27°F / -3°C 19°F / -7°C 74% 29.89 in
(1012 mb)
SW 9.2 mph
(SW 15 kph)
- 10SM
14:35
Overcast
25°F / -4°C 19°F / -7°C 80% 29.89 in
(1012 mb)
SSW 10.4 mph
(SSW 17 kph)
- 10SM
14:15
Overcast
25°F / -4°C 19°F / -7°C 80% 29.89 in
(1012 mb)
SSW 8.1 mph
(SSW 13 kph)
- 7SM
13:55
Overcast
27°F / -3°C 21°F / -6°C 80% 29.92 in
(1013 mb)
SSW 6.9 mph
(SSW 11 kph)
- 7SM
13:35
Overcast
25°F / -4°C 21°F / -6°C 86% 29.92 in
(1013 mb)
SSW 11.5 mph
(SSW 19 kph)
- 10SM
13:15
Overcast
25°F / -4°C 19°F / -7°C 80% 29.92 in
(1013 mb)
SW 9.2 mph
(SW 15 kph)
- 10SM
12:55
Overcast
25°F / -4°C 21°F / -6°C 86% 29.92 in
(1013 mb)
SW 10.4 mph
(SW 17 kph)
- 10SM
12:35
Overcast
25°F / -4°C 19°F / -7°C 80% 29.95 in
(1014 mb)
SSW 9.2 mph
(SSW 15 kph)
- 10SM
12:15
Overcast
25°F / -4°C 19°F / -7°C 80% 29.95 in
(1014 mb)
SW 10.4 mph
(SW 17 kph)
- 10SM
11:55
Overcast
25°F / -4°C 19°F / -7°C 80% 29.95 in
(1014 mb)
SW 11.5 mph
(SW 19 kph)
- 10SM
11:35
Overcast
25°F / -4°C 19°F / -7°C 80% 29.95 in
(1014 mb)
SW 9.2 mph
(SW 15 kph)
- 7SM
11:15
Overcast
23°F / -5°C 19°F / -7°C 86% 29.98 in
(1015 mb)
SW 5.8 mph
(SW 9 kph)
- 7SM
10:55
Overcast
23°F / -5°C 19°F / -7°C 86% 29.98 in
(1015 mb)
SW 6.9 mph
(SW 11 kph)
- 7SM
10:35
Overcast
Fog And Mist
23°F / -5°C 19°F / -7°C 86% 29.98 in
(1015 mb)
SW 11.5 mph
(SW 19 kph)
- 5SM
10:15
Overcast
Fog And Mist
23°F / -5°C 19°F / -7°C 86% 29.98 in
(1015 mb)
SSW 10.4 mph
(SSW 17 kph)
- 5SM
09:55
Overcast
Fog And Mist
23°F / -5°C 19°F / -7°C 86% 30.01 in
(1016 mb)
SSW 8.1 mph
(SSW 13 kph)
- 5SM
09:35
Overcast
23°F / -5°C 19°F / -7°C 86% 30.01 in
(1016 mb)
SW 4.6 mph
(SW 7 kph)
- 7SM
09:15
Mostly Cloudy
21°F / -6°C 19°F / -7°C 93% 30.01 in
(1016 mb)
SW 4.6 mph
(SW 7 kph)
- 7SM
08:55
Partly Cloudy
Fog And Mist
21°F / -6°C 18°F / -8°C 86% 30.01 in
(1016 mb)
SW 5.8 mph
(SW 9 kph)
- 5SM
08:35
Clear
21°F / -6°C 18°F / -8°C 86% 30.01 in
(1016 mb)
SSE 5.8 mph
(SSE 9 kph)
- 7SM
08:15
Clear
19°F / -7°C 18°F / -8°C 93% 30.01 in
(1016 mb)
SSE 5.8 mph
(SSE 9 kph)
- 7SM
07:55
Clear
19°F / -7°C 16°F / -9°C 86% 30.01 in
(1016 mb)
SSE 4.6 mph
(SSE 7 kph)
- 7SM
07:35
Partly Cloudy
19°F / -7°C 18°F / -8°C 93% 30.04 in
(1017 mb)
SW 5.8 mph
(SW 9 kph)
- 7SM
07:15
Clear
19°F / -7°C 16°F / -9°C 86% 30.04 in
(1017 mb)
SW 5.8 mph
(SW 9 kph)
- 7SM
06:55
Clear
19°F / -7°C 16°F / -9°C 86% 30.04 in
(1017 mb)
SSE 6.9 mph
(SSE 11 kph)
- 7SM
06:35
Partly Cloudy
19°F / -7°C 16°F / -9°C 86% 30.04 in
(1017 mb)
SSE 6.9 mph
(SSE 11 kph)
- 7SM
06:15
Partly Cloudy
Fog And Mist
18°F / -8°C 16°F / -9°C 93% 30.04 in
(1017 mb)
SSE 6.9 mph
(SSE 11 kph)
- 5SM
05:55
Mostly Cloudy
Light Snow
19°F / -7°C 16°F / -9°C 86% 30.04 in
(1017 mb)
SSE 5.8 mph
(SSE 9 kph)
- 4SM
05:35
Partly Cloudy
18°F / -8°C 16°F / -9°C 93% 30.04 in
(1017 mb)
S 3.5 mph
(S 6 kph)
- 7SM
05:15
Clear
19°F / -7°C 16°F / -9°C 86% 30.04 in
(1017 mb)
S 5.8 mph
(S 9 kph)
- 7SM
04:55
Partly Cloudy
19°F / -7°C 18°F / -8°C 93% 30.04 in
(1017 mb)
SSE 5.8 mph
(SSE 9 kph)
- 7SM
04:35
Partly Cloudy
Light Snow
19°F / -7°C 18°F / -8°C 93% 30.04 in
(1017 mb)
S 5.8 mph
(S 9 kph)
- 5SM
04:15
Clear
Light Snow
19°F / -7°C 18°F / -8°C 93% 30.06 in
(1018 mb)
S 4.6 mph
(S 7 kph)
- 5SM
03:55
Clear
Fog And Mist
19°F / -7°C 18°F / -8°C 93% 30.06 in
(1018 mb)
S 4.6 mph
(S 7 kph)
- 5SM
03:35
Partly Cloudy
Fog And Mist
19°F / -7°C 18°F / -8°C 93% 30.09 in
(1019 mb)
SW 5.8 mph
(SW 9 kph)
- 5SM
03:15
Mostly Cloudy
Light Snow
19°F / -7°C 18°F / -8°C 93% 30.09 in
(1019 mb)
Calm - 5SM
02:55
Mostly Cloudy
Light Snow
19°F / -7°C 18°F / -8°C 93% 30.09 in
(1019 mb)
SW 4.6 mph
(SW 7 kph)
- 7SM
02:35
Mostly Cloudy
Light Snow
19°F / -7°C 18°F / -8°C 93% 30.09 in
(1019 mb)
SSE 5.8 mph
(SSE 9 kph)
- 1 3/4SM
02:15
Mostly Cloudy
Light Snow
19°F / -7°C 18°F / -8°C 93% 30.09 in
(1019 mb)
SSE 3.5 mph
(SSE 6 kph)
- 1 1/2SM
01:55
Overcast
Light Snow
19°F / -7°C 18°F / -8°C 93% 30.12 in
(1020 mb)
SSW 4.6 mph
(SSW 7 kph)
- 2SM
01:35
Partly Cloudy
Light Snow
19°F / -7°C 16°F / -9°C 86% 30.12 in
(1020 mb)
SSW 3.5 mph
(SSW 6 kph)
- 3SM
01:15
Partly Cloudy
Fog And Mist
18°F / -8°C 16°F / -9°C 93% 30.12 in
(1020 mb)
SW 3.5 mph
(SW 6 kph)
- 5SM
00:55
Partly Cloudy
18°F / -8°C 16°F / -9°C 93% 30.12 in
(1020 mb)
SW 4.6 mph
(SW 7 kph)
- 10SM
00:35
Partly Cloudy
Light Snow
18°F / -8°C 16°F / -9°C 93% 30.15 in
(1021 mb)
SW 3.5 mph
(SW 6 kph)
- 7SM
00:15
Partly Cloudy
Light Snow
19°F / -7°C 16°F / -9°C 86% 30.15 in
(1021 mb)
SW 3.5 mph
(SW 6 kph)
- 2 1/2SM
Time Weather Temperature Dewpoint Humidity Pressure Winds Precip Visibility


Weather for websites

WeatherForYou.com, LLC is not responsible for any damages or problems caused by this service. Current weather conditions are obtained from the closest station including government and personal stations which may have varying degrees of accuracy. Weather forecasts are derived from the NOAA NDFD. Like all things, this site belongs to Jesus Christ... He just trusts me to maintain it. If you have any questions or comments email webmaster@weatherforyou.com

Copyright © 2014, WeatherForYou.com LLC. All rights reserved.